map of SJK home
Great Circle Mapper logo
SJK - Airport
Location
City:  São José dos Campos, São Paulo, Brazil
Name:Professor Urbano Ernesto Stumpf
ICAO / IATA:SBSJ / SJK

Details
Type:Airport (Aerodrome, Airfield)
Use:Public/Civil, Military
Latitude:23°13'41"S (-23.228171)
Longitude:45°51'46"W (-45.862738)
Datum:WGS 1984
Elevation:2120 ft (646 m)
Runways:1
Longest:8779 × 148 ft (2676 × 45 m), paved

Time
Time Zone:UTC-3 (DST-2)
Local Time:

Weather
METAR:SBSJ 231200Z 06011KT 9999 BKN020 22/14 Q1023
TAF:SBSJ 230200Z 2306/2406 11010KT 7000 BKN015 TN15/2307Z TX27/2318Z PROB30 2307/2312 08005KT 4000 BR BKN008
BECMG 2313/2315 14015KT 9999 SCT025
BECMG 2322/2324 12010KT
BECMG 2402/2404 00000KT 7000 NSC
RMK PHB

Related Locations
Nearby:
Farthest:MMD: 12183 mi / 19606 km
Minami Daito Jima, Okinawa, JP

Find:

   beyond  
but within

Other Information
Maps:
NOTAMs:
Links:
Sources:

  
flag of Brazil
flag of São Paulo
  

Sectional Chart

Flight Planning
at skyvector.com

Satellite Image

Google Maps Satellite View

 

Copyright © 2004-2014 Karl L. Swartz. All rights reserved.
The Great Circle Mapper name and logo are trademarks of the Great Circle Mapper.
All other trademarks mentioned herein belong to their respective owners.
Please see credits for attibutions and further copyright information.

  Follow gcmap on Facebook Follow gcmap on Twitter

hCard Microformat

Geo Microformat